Weather History for KANK - March, 2013

Change the Weather History Date:

Tuesday, March 12, 2013

  Actual Average (KGUC) Record (KGUC)
Temperature  
Mean Temperature 40 °F -  
Max Temperature 54 °F 39 °F 60 °F (2007)
Min Temperature 26 °F 14 °F 1 °F (2008)
Degree Days  
Heating Degree Days 25    
Moisture  
Dew Point 21 °F    
Average Humidity 49    
Maximum Humidity 93    
Minimum Humidity 25    
Precipitation  
Precipitation 0.00 in - - ()
Sea Level Pressure  
Sea Level Pressure 30.25 in    
Wind  
Wind Speed 12 mph (SW)    
Max Wind Speed 24 mph    
Max Gust Speed 34 mph    
Visibility 10 miles    
Events      
Averages and records for this station are not official NWS values.
T = Trace of Precipitation, MM = Missing Value Source: NWS Daily Summary

Daily Weather History Graph

Daily Weather History Graph

Search for Another Location

Airport or City:

Trip Planner

Search our weather history database for the weather conditions in past years. The results will help you decide how hot, cold, wet, or windy it might be!

Date:

Astronomy

Mar. 12, 2013 Rise Set
Actual Time 7:19 AM MDT 7:08 PM MDT
Civil Twilight 6:53 AM MDT 7:35 PM MDT
Nautical Twilight 6:22 AM MDT 8:05 PM MDT
Astronomical Twilight 5:51 AM MDT 8:36 PM MDT
Moon 7:28 AM MDT (3/12) 8:25 PM MDT (3/12)
Length of Visible Light 12h 41m
Length of Day
11h 49m
New Moon, 1% of the Moon is Illuminated
Mar 12
New Moon
Mar 19
First Quarter
Mar 27
Full
Apr 2
Last Quarter
Apr 10
New

Hourly Weather History & Observations

Time (MDT) Temp. Windchill Dew Point Humidity Pressure Visibility Wind Dir Wind Speed Gust Speed Precip Events Conditions
12:15 AM 38.7 °F 27.8 °F 19.8 °F 47% 30.15 in 10.0 mi West 24.2 mph 34.5 mph N/A   Clear
12:35 AM 38.5 °F 28.9 °F 19.9 °F 47% 30.15 in 10.0 mi West 18.4 mph 24.2 mph N/A   Clear
12:55 AM 38.8 °F 32.1 °F 20.3 °F 47% 30.15 in 10.0 mi WNW 10.4 mph 23.0 mph N/A   Clear
1:15 AM 37.2 °F 31.9 °F 19.4 °F 49% 30.16 in 10.0 mi NW 6.9 mph - N/A   Scattered Clouds
1:35 AM 36.1 °F 29.9 °F 19.8 °F 51% 30.17 in 10.0 mi North 8.1 mph - N/A   Scattered Clouds
1:55 AM 35.1 °F 31.0 °F 19.8 °F 54% 30.17 in 10.0 mi North 4.6 mph - N/A   Clear
2:15 AM 36.9 °F 30.7 °F 19.6 °F 50% 30.17 in 10.0 mi NW 8.1 mph 17.3 mph N/A   Clear
2:35 AM 35.2 °F 28.8 °F 19.8 °F 53% 30.17 in 10.0 mi NW 8.1 mph - N/A   Clear
2:55 AM 32.5 °F 26.2 °F 19.4 °F 58% 30.17 in 10.0 mi North 6.9 mph - N/A   Clear
3:15 AM 32.2 °F 27.7 °F 19.4 °F 59% 30.17 in 10.0 mi North 4.6 mph - N/A   Clear
3:35 AM 31.6 °F - 19.4 °F 61% 30.17 in 10.0 mi Calm Calm - N/A   Clear
3:55 AM 32.2 °F 27.7 °F 19.6 °F 60% 30.17 in 10.0 mi West 4.6 mph - N/A   Clear
4:15 AM 30.7 °F 24.1 °F 19.9 °F 64% 30.18 in 10.0 mi ESE 6.9 mph - N/A   Clear
4:35 AM 30.2 °F 24.3 °F 21.6 °F 70% 30.18 in 10.0 mi ESE 5.8 mph - N/A   Clear
4:55 AM 30.4 °F 23.6 °F 21.7 °F 70% 30.19 in 10.0 mi East 6.9 mph - N/A   Clear
5:15 AM 29.3 °F 21.5 °F 22.5 °F 76% 30.20 in 10.0 mi ESE 8.1 mph - N/A   Clear
5:35 AM 28.8 °F 22.6 °F 22.1 °F 76% 30.20 in 10.0 mi ESE 5.8 mph - N/A   Clear
5:55 AM 28.4 °F 20.4 °F 23.4 °F 81% 30.21 in 10.0 mi ESE 8.1 mph - N/A   Clear
6:15 AM 28.2 °F 19.5 °F 23.5 °F 83% 30.22 in 10.0 mi ESE 9.2 mph - N/A   Clear
6:35 AM 27.5 °F 18.6 °F 23.9 °F 86% 30.22 in 10.0 mi SE 9.2 mph - N/A   Clear
6:55 AM 27.1 °F 18.9 °F 23.9 °F 88% 30.23 in 10.0 mi SE 8.1 mph - N/A   Clear
7:35 AM 26.1 °F 19.4 °F 23.9 °F 92% 30.24 in 10.0 mi ESE 5.8 mph - N/A   Clear
7:55 AM 26.2 °F 19.6 °F 24.4 °F 93% 30.25 in 10.0 mi ESE 5.8 mph - N/A   Clear
8:15 AM 27.5 °F 22.2 °F 25.2 °F 91% 30.26 in 10.0 mi SE 4.6 mph - N/A   Clear
8:35 AM 29.3 °F 21.5 °F 25.3 °F 85% 30.27 in 10.0 mi ESE 8.1 mph - N/A   Clear
8:55 AM 30.6 °F 22.4 °F 25.3 °F 81% 30.28 in 10.0 mi ESE 9.2 mph - N/A   Clear
9:15 AM 31.1 °F 24.5 °F 25.2 °F 79% 30.29 in 10.0 mi ESE 6.9 mph - N/A   Clear
9:35 AM 32.4 °F 29.1 °F 24.8 °F 74% 30.29 in 10.0 mi ESE 3.5 mph - N/A   Clear
9:55 AM 34.2 °F 31.2 °F 24.6 °F 68% 30.29 in 10.0 mi East 3.5 mph - N/A   Clear
10:15 AM 35.8 °F - 24.1 °F 62% 30.29 in 10.0 mi Calm Calm - N/A   Clear
10:35 AM 38.3 °F - 23.5 °F 55% 30.29 in 10.0 mi Calm Calm - N/A   Clear
11:15 AM 43.7 °F 38.1 °F 21.0 °F 41% 30.28 in 10.0 mi SSW 10.4 mph - N/A   Clear
11:35 AM 48.4 °F - 18.7 °F 31% 30.29 in 10.0 mi WSW 12.7 mph 21.9 mph N/A   Clear
11:55 AM 50.2 °F - 19.6 °F 30% 30.25 in 10.0 mi WSW 13.8 mph 23.0 mph N/A   Clear
12:15 PM 51.1 °F - 18.9 °F 28% 30.25 in 10.0 mi WSW 18.4 mph 23.0 mph N/A   Clear
12:35 PM 51.3 °F - 19.0 °F 28% 30.25 in 10.0 mi WSW 17.3 mph 27.6 mph N/A   Clear
12:55 PM 51.6 °F - 18.5 °F 27% 30.25 in 10.0 mi WSW 12.7 mph 24.2 mph N/A   Clear
1:15 PM 52.3 °F - 18.3 °F 26% 30.24 in 10.0 mi SW 16.1 mph 21.9 mph N/A   Clear
1:35 PM 54.0 °F - 18.1 °F 25% 30.24 in 10.0 mi WSW 17.3 mph 21.9 mph N/A   Clear
1:55 PM 54.3 °F - 18.9 °F 25% 30.24 in 10.0 mi SSW 16.1 mph 23.0 mph N/A   Scattered Clouds
2:15 PM 52.9 °F - 18.7 °F 26% 30.24 in 10.0 mi SSW 18.4 mph 26.5 mph N/A   Mostly Cloudy
2:35 PM 54.5 °F - 19.2 °F 25% 30.24 in 10.0 mi WSW 19.6 mph 25.3 mph N/A   Mostly Cloudy
2:55 PM 53.2 °F - 19.2 °F 26% 30.24 in 10.0 mi West 21.9 mph 27.6 mph N/A   Mostly Cloudy
3:15 PM 52.2 °F - 19.0 °F 27% 30.25 in 10.0 mi West 20.7 mph 28.8 mph N/A   Scattered Clouds
3:35 PM 52.0 °F - 18.5 °F 27% 30.25 in 10.0 mi West 18.4 mph 28.8 mph N/A   Clear
3:55 PM 52.5 °F - 18.9 °F 27% 30.25 in 10.0 mi West 18.4 mph 28.8 mph N/A   Clear
4:15 PM 51.6 °F - 19.2 °F 28% 30.26 in 10.0 mi West 20.7 mph 25.3 mph N/A   Clear
4:35 PM 51.6 °F - 19.2 °F 28% 30.26 in 10.0 mi West 19.6 mph 29.9 mph N/A   Clear
4:55 PM 51.4 °F - 19.6 °F 29% 30.27 in 10.0 mi WSW 19.6 mph 25.3 mph N/A   Clear
5:15 PM 51.4 °F - 20.1 °F 29% 30.26 in 10.0 mi WSW 18.4 mph 26.5 mph N/A   Clear
5:35 PM 50.2 °F - 20.3 °F 31% 30.26 in 10.0 mi West 16.1 mph 26.5 mph N/A   Clear
5:55 PM 48.9 °F - 20.5 °F 33% 30.26 in 10.0 mi WSW 19.6 mph 26.5 mph N/A   Clear
6:15 PM 48.6 °F - 20.5 °F 33% 30.27 in 10.0 mi West 20.7 mph 25.3 mph N/A   Clear
6:35 PM 47.5 °F - 20.7 °F 35% 30.27 in 10.0 mi WSW 17.3 mph 23.0 mph N/A   Clear
6:55 PM 47.1 °F - 21.2 °F 36% 30.28 in 10.0 mi West 15.0 mph 25.3 mph N/A   Clear
7:15 PM 45.7 °F 38.8 °F 21.2 °F 38% 30.29 in 10.0 mi WSW 16.1 mph 21.9 mph N/A   Clear
7:35 PM 44.8 °F 38.7 °F 21.2 °F 39% 30.29 in 10.0 mi SW 12.7 mph 19.6 mph N/A   Clear
7:55 PM 44.2 °F 38.8 °F 21.2 °F 40% 30.30 in 10.0 mi WSW 10.4 mph 17.3 mph N/A   Clear
8:15 PM 43.3 °F 38.6 °F 21.2 °F 41% 30.31 in 10.0 mi WSW 8.1 mph - N/A   Clear
8:35 PM 43.2 °F 37.4 °F 21.2 °F 42% 30.31 in 10.0 mi WSW 10.4 mph - N/A   Clear
8:55 PM 43.7 °F 37.7 °F 20.8 °F 40% 30.32 in 10.0 mi WSW 11.5 mph - N/A   Clear
9:15 PM 41.4 °F 34.7 °F 20.8 °F 44% 30.32 in 10.0 mi WSW 11.5 mph - N/A   Clear
9:35 PM 42.1 °F 37.1 °F 20.3 °F 42% 30.33 in 10.0 mi WSW 8.1 mph - N/A   Clear
9:55 PM 42.8 °F 36.6 °F 20.8 °F 42% 30.33 in 10.0 mi SSW 11.5 mph 18.4 mph N/A   Clear
10:15 PM 41.9 °F 35.0 °F 21.2 °F 44% 30.34 in 10.0 mi WSW 12.7 mph - N/A   Clear
10:35 PM 41.4 °F 34.3 °F 21.2 °F 45% 30.34 in 10.0 mi West 12.7 mph 17.3 mph N/A   Clear
10:55 PM 43.0 °F 35.1 °F 19.9 °F 40% 30.34 in 10.0 mi WSW 17.3 mph 23.0 mph N/A   Clear
11:15 PM 42.8 °F 35.8 °F 20.1 °F 40% 30.35 in 10.0 mi WSW 13.8 mph 23.0 mph N/A   Clear
11:35 PM 42.1 °F 37.1 °F 19.4 °F 40% 30.35 in 10.0 mi NNW 8.1 mph - N/A   Clear
11:55 PM 36.0 °F 31.1 °F 20.8 °F 54% 30.35 in 10.0 mi West 5.8 mph - N/A   Clear